Location: Bouchavesnes-Bergen
(49.9859°N, 2.9203°E)
Time: 00:53:49
(UTC+00:00)

IDEFIX/ARIANE 42P - Pass Details

Date: 27 June 2021
Orbit: 784 x 803 km, 98.4° (Epoch: 30 July)

Event Time Altitude Azimuth Distance (km) Brightness Sun altitude
Rises 01:39:27 0° 22° (NNE) 3,311 7.9 -12.9°
Reaches altitude 10° 01:42:07 10° 34° (NE) 2,373 6.5 -12.7°
Maximum altitude 01:46:38 29° 93° (E) 1,435 4.2 -12.4°
Drops below altitude 10° 01:51:05 10° 153° (SSE) 2,347 4.7 -12.0°
Enters shadow 01:52:37 - 161° (SSE) 2,878 5.1 -11.9°
